SCP
0 0 -0 0 0 0 0 0 0 0 0 -0 -0 0 0 0 0 0 0 0 0 0 0 0 0 0 0 0 0 0 0 0 0 0 0 0 0 0
0 0 0 -0 0 0 0 0 0 0 0 0 -0 0 0 0 0 0 0 0 0 0 0 0 0 0 0 0 0 0 0 0 0 0 0 0 0 0
0 0 0 0 0 0 0 0 0 0 0 0 -0 0 0 0 0 0 0 0 0 0 0 0 0 0 0 0 0 0 0 0 0 0 0 0 -0 -0
0 0 0 0 0 0 0 0 0 0 -0 0 0 0 0 0 0 0 0 0 0 0 0 0 0 0 0 0 0 0 0 0 0 0 0 0 -0 -0
0 0 0 0 0 0 0 0 0 0 -0 -0 0 -0 -0 0 0 0 0 0 0 0 0 0 0 0 0 0 0 0 0 0 0 0 0 0 0 0
0 0 0 0 0 0 0 0 0 0 0 -0 -0 0 -0 -0 -0 0 0 0 0 0 0 0 0 0 0 0 0 0 0 0 0 0 0 0 0 0
0 0 0 0 0 0 0 0 0 0 0 0 -0 -0 -0 -0 -0 -0 0 0 0 0 0 0 0 0 0 0 0 0 0 0 0 0 0 0 0 0
0 0 0 0 0 0 0 0 0 0 0 -0 -0 -0 -0 0 -0 0 0 0 -0 0 0 0 0 0 0 0 0 0 0 0 0 0 0 0 0 0
0 0 0 0 0 0 0 0 0 0 0 0 0 0 -0 0 0 0 0 0 0 0 0 0 0 0 0 0 0 0 0 0 0 0 0 0 0 0
0 0 0 0 0 0 0 0 0 0 0 0 0 0 0 0 -0 -0 -0 0 0 0 -0 -0 0 0 0 0 0 0 0 0 0 0 0 0 0 0
0 0 0 0 0 0 0 0 0 0 0 0 0 0 0 0 0 0 0 -0 -0 0 0 -0 -0 0 0 0 0 0 0 0 0 0 0 0 0 0
0 0 0 0 0 0 0 0 0 0 0 0 0 0 0 0 0 0 0 -0 -0 0 0 0 0 0 0 0 0 0 0 0 0 0 0 0 0 0
0 0 0 0 0 0 0 0 0 0 0 0 0 0 0 0 0 0 0 -0 -0 -0 0 0 0 0 0 0 0 0 0 0 0 0 0 0 0 0
0 0 0 0 0 0 0 0 0 0 0 0 0 0 0 0 0 0 0 0 0 -0 -0 0 0 0 0 0 0 0 0 0 0 0 0 0 0 0
0 0 0 0 0 0 0 0 0 0 0 0 0 0 0 0 0 0 0 -0 0 0 0 0 0 0 0 -0 0 0 0 0 0 0 0 0 0 0
0 0 0 0 -0 0 0 0 0 0 0 0 0 0 0 0 0 0 0 0 0 0 0 0 0 0 0 0 0 0 0 0 0 0 0 0 0 0
0 0 0 0 -0 -0 0 0 0 0 0 0 0 0 0 0 0 0 0 0 0 0 0 0 0 0 0 0 0 0 0 0 0 0 0 0 0 0
0 0 0 0 -0 -0 -0 0 0 0 -0 -0 -0 0 0 0 0 0 0 0 0 -0 0 0 0 0 0 0 0 -0 -0 0 0 0 0 0 0 0
0 0 0 0 0 -0 -0 -0 -0 -0 -0 -0 -0 0 0 0 0 0 0 0 0 0 0 -0 0 0 0 0 0 -0 -0 -0 -0 -0 0 0 0 0
0 0 0 0 0 0 -0 -0 -0 -0 -0 -0 -0 0 0 0 0 0 0 0 0 -0 -0 -0 -0 -0 -0 0 0 0 -0 -0 0 0 0 0 0 0
0 0 0 0 0 0 0 0 0 0 0 -0 -0 -0 -0 0 0 0 0 0 0 -0 -0 -0 -0 -0 0 0 0 0 0 0 0 0 0 0 0 0
0 0 0 0 0 0 0 0 0 0 0 0 0 0 0 0 0 0 0 0 -0 -0 -0 -0 -0 -0 0 0 0 0 0 0 0 0 0 -0 0 0
0 0 0 0 0 0 0 0 0 0 0 0 0 0 0 0 0 0 0 0 -0 -0 -0 -0 0 0 -0 -0 -0 0 0 0 0 0 0 0 0 0
Wind_Speed_500mb
39 45 47 50 46 37 36 35 35 36 48 47 47 46 42 39 34 30 24 26 27 25 25 22 21 23 21 23 24 26 33 44 52 62 72 59 46 48
48 50 43 46 51 47 43 38 36 33 25 42 44 46 39 30 27 26 24 26 21 19 16 14 14 15 14 14 16 18 14 35 46 39 49 66 55 54
42 48 54 50 50 44 40 39 39 34 32 40 43 38 28 27 23 21 16 16 15 13 10 10 13 10 8 10 12 12 12 18 44 35 48 67 68 61
48 48 45 44 40 37 32 32 31 33 34 37 37 39 34 27 22 18 19 16 14 9 7 12 15 16 14 13 15 10 6 9 29 29 40 44 52 66
52 46 39 36 36 35 31 29 28 31 37 41 44 43 40 36 36 30 23 21 18 19 19 19 22 20 20 23 21 17 13 8 7 15 35 43 44 61
44 41 37 34 30 29 30 32 36 40 42 46 50 51 50 47 39 37 44 36 35 28 28 30 30 34 34 33 30 27 25 16 16 11 15 28 46 48
29 32 34 32 29 33 33 32 36 41 44 45 49 52 50 53 47 40 40 42 41 34 36 27 28 26 24 31 37 38 38 31 21 22 19 24 32 46
35 37 38 33 27 26 30 33 35 38 42 44 45 49 50 51 53 49 46 48 52 34 44 33 35 24 19 18 20 20 18 21 29 23 23 24 29 40
35 36 32 30 24 29 35 33 31 32 31 34 40 41 44 39 41 52 45 45 51 45 46 53 41 33 17 18 14 11 14 18 19 23 24 23 26 27
33 27 18 22 24 30 34 29 27 27 29 25 26 27 26 27 35 42 41 37 43 48 42 51 40 32 27 10 8 5 5 6 6 11 17 25 28 26
25 21 17 22 24 29 27 27 25 30 21 21 20 23 23 24 31 36 35 35 36 33 16 21 20 29 28 17 8 14 3 10 13 15 16 20 23 26
24 22 22 25 26 24 28 34 39 34 25 27 26 25 32 29 34 28 27 29 30 19 14 23 11 20 20 15 25 17 14 10 15 20 21 20 21 20
31 30 26 25 25 25 27 26 28 23 21 26 30 32 34 33 33 25 26 26 22 23 26 22 17 17 18 30 33 20 18 21 19 19 18 19 19 15
29 24 26 28 27 26 23 24 17 18 23 24 27 32 35 40 39 36 25 24 20 21 19 23 14 16 13 16 19 15 6 7 11 18 12 12 11 11
26 26 21 26 36 34 29 21 18 19 24 21 26 34 26 36 40 39 30 29 21 13 9 5 5 10 5 8 8 14 3 13 6 3 11 15 9 10
19 17 22 32 43 35 23 18 19 22 28 28 27 25 27 31 35 28 32 35 34 24 11 8 11 1 5 6 8 15 19 15 14 17 14 2 3 5
19 20 25 37 47 44 32 22 24 25 26 31 31 25 27 24 30 32 32 27 30 32 30 25 19 9 22 13 13 12 19 20 18 16 9 11 8 2
21 20 25 32 43 39 38 27 26 30 34 37 30 29 28 28 28 23 31 37 24 24 23 29 21 15 13 23 21 17 12 18 23 25 32 23 7 4
32 27 26 32 36 32 35 30 29 32 35 39 36 25 24 23 27 31 32 31 26 17 20 23 26 34 35 35 19 26 21 24 27 24 21 18 32 22
31 33 28 31 32 28 30 32 34 36 39 41 38 29 24 18 23 33 33 28 29 25 26 32 35 34 31 28 28 29 28 29 28 31 34 30 32 30
26 35 29 31 30 26 28 33 38 39 39 36 34 30 29 13 15 28 20 26 35 41 40 31 25 22 20 21 22 26 26 25 23 33 40 42 39 27
27 32 33 31 28 28 29 37 46 47 44 39 34 30 25 19 9 16 15 15 31 40 33 32 33 30 25 24 22 26 30 28 22 25 23 28 39 41
27 29 33 31 24 25 31 37 45 53 56 50 41 34 27 23 6 10 17 13 22 32 30 37 32 32 36 29 28 32 33 36 39 39 30 31 38 41
Wind_Direction_500mb
323 331 326 324 318 318 321 328 329 321 321 326 335 339 328 326 320 316 323 326 327 316 304 291 318 292 286 282 289 286 264 246 238 225 208 207 224 231
322 328 332 327 321 317 316 321 324 319 316 313 325 326 337 328 333 311 312 316 319 313 318 343 338 300 325 309 303 295 274 258 247 229 230 212 216 229
323 327 328 323 319 323 327 323 315 314 322 312 313 326 331 343 337 333 321 317 317 299 286 275 299 305 301 342 350 309 294 285 234 248 232 214 223 231
331 325 323 323 323 326 329 333 333 330 336 342 325 327 331 326 338 317 308 304 293 285 274 267 282 295 300 296 303 330 348 256 252 252 244 240 247 229
329 326 326 324 325 325 333 332 334 338 338 339 332 325 326 328 308 312 308 307 294 293 298 289 283 287 283 287 288 291 287 275 275 255 246 243 247 251
329 323 324 332 331 325 328 330 324 321 325 328 331 328 321 320 321 317 298 309 313 324 317 305 302 294 281 276 278 278 270 260 253 247 293 262 248 243
324 324 325 330 327 323 325 328 329 326 325 326 326 323 322 321 325 320 314 309 308 318 315 314 312 302 287 272 267 263 267 257 254 244 268 286 255 238
330 328 324 330 327 322 325 326 324 320 320 321 322 319 319 319 318 312 305 306 312 315 326 310 319 313 318 293 260 252 241 253 247 252 268 288 296 244
323 322 318 324 330 330 326 326 322 318 314 319 319 324 326 328 325 326 317 289 290 303 314 308 309 305 326 337 319 267 272 294 266 261 275 279 294 301
336 331 337 343 337 333 336 345 347 352 346 345 342 336 328 329 324 331 329 315 298 296 298 296 298 295 285 330 11 288 277 309 266 259 279 282 275 276
342 347 337 343 328 336 344 351 358 356 350 354 353 357 345 327 325 325 324 335 324 319 318 321 304 298 296 304 317 10 303 269 286 296 292 298 280 261
24 9 354 351 357 355 348 341 338 341 352 350 353 356 358 350 351 332 324 330 314 328 330 340 332 350 327 316 333 346 304 305 308 281 292 295 290 274
2 11 35 21 4 358 356 359 7 359 358 359 353 348 8 3 354 350 341 324 332 295 302 333 328 332 328 329 338 350 314 297 296 313 302 295 295 289
19 29 27 9 1 354 352 357 4 5 1 355 356 6 12 16 13 7 357 350 315 313 313 310 302 334 346 334 342 342 13 314 275 285 312 316 329 333
45 33 11 357 348 337 334 340 356 3 2 3 7 4 3 5 360 7 11 8 20 349 307 332 298 283 42 15 63 36 234 45 49 288 263 287 311 312
23 18 1 2 3 5 355 354 7 12 23 27 21 18 17 22 21 20 9 14 25 30 40 360 22 338 347 302 359 18 30 28 42 61 59 99 203 235
11 1 2 4 6 15 24 31 19 11 16 16 12 8 13 19 24 18 11 8 16 27 39 49 24 45 70 36 0 306 343 350 331 2 63 53 48 247
4 8 8 7 4 10 19 15 10 7 7 2 352 357 7 22 26 24 22 28 21 24 32 26 27 36 21 35 33 29 341 345 341 313 307 317 290 323
360 358 359 1 0 4 8 9 360 0 356 359 358 349 351 11 23 26 24 26 29 31 12 13 17 15 11 14 14 356 341 331 324 322 317 296 289 294
358 356 354 358 359 3 4 3 358 354 356 359 2 0 353 8 24 28 36 46 40 43 15 2 358 359 356 349 347 348 339 329 327 332 328 317 290 283
2 3 4 3 0 358 5 10 9 4 0 1 4 2 359 357 25 33 69 47 17 9 9 2 359 357 349 347 345 350 356 355 345 342 340 337 332 309
357 2 9 11 18 29 32 28 22 15 12 8 5 360 359 353 348 21 41 18 16 5 3 9 14 3 353 350 356 349 341 343 331 322 330 338 339 320
346 354 1 7 16 27 21 16 18 15 14 12 8 2 357 1 15 12 11 348 358 355 356 353 346 356 6 359 352 349 343 336 331 326 318 312 312 306
Wind_Speed_850mb
39 45 47 50 46 37 36 35 35 36 48 47 47 46 42 39 34 30 24 26 27 25 25 22 21 23 21 23 24 26 33 44 52 62 72 59 46 48
48 50 43 46 51 47 43 38 36 33 25 42 44 46 39 30 27 26 24 26 21 19 16 14 14 15 14 14 16 18 14 35 46 39 49 66 55 54
42 48 54 50 50 44 40 39 39 34 32 40 43 38 28 27 23 21 16 16 15 13 10 10 13 10 8 10 12 12 12 18 44 35 48 67 68 61
48 48 45 44 40 37 32 32 31 33 34 37 37 39 34 27 22 18 19 16 14 9 7 12 15 16 14 13 15 10 6 9 29 29 40 44 52 66
52 46 39 36 36 35 31 29 28 31 37 41 44 43 40 36 36 30 23 21 18 19 19 19 22 20 20 23 21 17 13 8 7 15 35 43 44 61
44 41 37 34 30 29 30 32 36 40 42 46 50 51 50 47 39 37 44 36 35 28 28 30 30 34 34 33 30 27 25 16 16 11 15 28 46 48
29 32 34 32 29 33 33 32 36 41 44 45 49 52 50 53 47 40 40 42 41 34 36 27 28 26 24 31 37 38 38 31 21 22 19 24 32 46
35 37 38 33 27 26 30 33 35 38 42 44 45 49 50 51 53 49 46 48 52 34 44 33 35 24 19 18 20 20 18 21 29 23 23 24 29 40
35 36 32 30 24 29 35 33 31 32 31 34 40 41 44 39 41 52 45 45 51 45 46 53 41 33 17 18 14 11 14 18 19 23 24 23 26 27
33 27 18 22 24 30 34 29 27 27 29 25 26 27 26 27 35 42 41 37 43 48 42 51 40 32 27 10 8 5 5 6 6 11 17 25 28 26
25 21 17 22 24 29 27 27 25 30 21 21 20 23 23 24 31 36 35 35 36 33 16 21 20 29 28 17 8 14 3 10 13 15 16 20 23 26
24 22 22 25 26 24 28 34 39 34 25 27 26 25 32 29 34 28 27 29 30 19 14 23 11 20 20 15 25 17 14 10 15 20 21 20 21 20
31 30 26 25 25 25 27 26 28 23 21 26 30 32 34 33 33 25 26 26 22 23 26 22 17 17 18 30 33 20 18 21 19 19 18 19 19 15
29 24 26 28 27 26 23 24 17 18 23 24 27 32 35 40 39 36 25 24 20 21 19 23 14 16 13 16 19 15 6 7 11 18 12 12 11 11
26 26 21 26 36 34 29 21 18 19 24 21 26 34 26 36 40 39 30 29 21 13 9 5 5 10 5 8 8 14 3 13 6 3 11 15 9 10
19 17 22 32 43 35 23 18 19 22 28 28 27 25 27 31 35 28 32 35 34 24 11 8 11 1 5 6 8 15 19 15 14 17 14 2 3 5
19 20 25 37 47 44 32 22 24 25 26 31 31 25 27 24 30 32 32 27 30 32 30 25 19 9 22 13 13 12 19 20 18 16 9 11 8 2
21 20 25 32 43 39 38 27 26 30 34 37 30 29 28 28 28 23 31 37 24 24 23 29 21 15 13 23 21 17 12 18 23 25 32 23 7 4
32 27 26 32 36 32 35 30 29 32 35 39 36 25 24 23 27 31 32 31 26 17 20 23 26 34 35 35 19 26 21 24 27 24 21 18 32 22
31 33 28 31 32 28 30 32 34 36 39 41 38 29 24 18 23 33 33 28 29 25 26 32 35 34 31 28 28 29 28 29 28 31 34 30 32 30
26 35 29 31 30 26 28 33 38 39 39 36 34 30 29 13 15 28 20 26 35 41 40 31 25 22 20 21 22 26 26 25 23 33 40 42 39 27
27 32 33 31 28 28 29 37 46 47 44 39 34 30 25 19 9 16 15 15 31 40 33 32 33 30 25 24 22 26 30 28 22 25 23 28 39 41
27 29 33 31 24 25 31 37 45 53 56 50 41 34 27 23 6 10 17 13 22 32 30 37 32 32 36 29 28 32 33 36 39 39 30 31 38 41
Wind_Direction_850mb
323 331 326 324 318 318 321 328 329 321 321 326 335 339 328 326 320 316 323 326 327 316 304 291 318 292 286 282 289 286 264 246 238 225 208 207 224 231
322 328 332 327 321 317 316 321 324 319 316 313 325 326 337 328 333 311 312 316 319 313 318 343 338 300 325 309 303 295 274 258 247 229 230 212 216 229
323 327 328 323 319 323 327 323 315 314 322 312 313 326 331 343 337 333 321 317 317 299 286 275 299 305 301 342 350 309 294 285 234 248 232 214 223 231
331 325 323 323 323 326 329 333 333 330 336 342 325 327 331 326 338 317 308 304 293 285 274 267 282 295 300 296 303 330 348 256 252 252 244 240 247 229
329 326 326 324 325 325 333 332 334 338 338 339 332 325 326 328 308 312 308 307 294 293 298 289 283 287 283 287 288 291 287 275 275 255 246 243 247 251
329 323 324 332 331 325 328 330 324 321 325 328 331 328 321 320 321 317 298 309 313 324 317 305 302 294 281 276 278 278 270 260 253 247 293 262 248 243
324 324 325 330 327 323 325 328 329 326 325 326 326 323 322 321 325 320 314 309 308 318 315 314 312 302 287 272 267 263 267 257 254 244 268 286 255 238
330 328 324 330 327 322 325 326 324 320 320 321 322 319 319 319 318 312 305 306 312 315 326 310 319 313 318 293 260 252 241 253 247 252 268 288 296 244
323 322 318 324 330 330 326 326 322 318 314 319 319 324 326 328 325 326 317 289 290 303 314 308 309 305 326 337 319 267 272 294 266 261 275 279 294 301
336 331 337 343 337 333 336 345 347 352 346 345 342 336 328 329 324 331 329 315 298 296 298 296 298 295 285 330 11 288 277 309 266 259 279 282 275 276
342 347 337 343 328 336 344 351 358 356 350 354 353 357 345 327 325 325 324 335 324 319 318 321 304 298 296 304 317 10 303 269 286 296 292 298 280 261
24 9 354 351 357 355 348 341 338 341 352 350 353 356 358 350 351 332 324 330 314 328 330 340 332 350 327 316 333 346 304 305 308 281 292 295 290 274
2 11 35 21 4 358 356 359 7 359 358 359 353 348 8 3 354 350 341 324 332 295 302 333 328 332 328 329 338 350 314 297 296 313 302 295 295 289
19 29 27 9 1 354 352 357 4 5 1 355 356 6 12 16 13 7 357 350 315 313 313 310 302 334 346 334 342 342 13 314 275 285 312 316 329 333
45 33 11 357 348 337 334 340 356 3 2 3 7 4 3 5 360 7 11 8 20 349 307 332 298 283 42 15 63 36 234 45 49 288 263 287 311 312
23 18 1 2 3 5 355 354 7 12 23 27 21 18 17 22 21 20 9 14 25 30 40 360 22 338 347 302 359 18 30 28 42 61 59 99 203 235
11 1 2 4 6 15 24 31 19 11 16 16 12 8 13 19 24 18 11 8 16 27 39 49 24 45 70 36 0 306 343 350 331 2 63 53 48 247
4 8 8 7 4 10 19 15 10 7 7 2 352 357 7 22 26 24 22 28 21 24 32 26 27 36 21 35 33 29 341 345 341 313 307 317 290 323
360 358 359 1 0 4 8 9 360 0 356 359 358 349 351 11 23 26 24 26 29 31 12 13 17 15 11 14 14 356 341 331 324 322 317 296 289 294
358 356 354 358 359 3 4 3 358 354 356 359 2 0 353 8 24 28 36 46 40 43 15 2 358 359 356 349 347 348 339 329 327 332 328 317 290 283
2 3 4 3 0 358 5 10 9 4 0 1 4 2 359 357 25 33 69 47 17 9 9 2 359 357 349 347 345 350 356 355 345 342 340 337 332 309
357 2 9 11 18 29 32 28 22 15 12 8 5 360 359 353 348 21 41 18 16 5 3 9 14 3 353 350 356 349 341 343 331 322 330 338 339 320
346 354 1 7 16 27 21 16 18 15 14 12 8 2 357 1 15 12 11 348 358 355 356 353 346 356 6 359 352 349 343 336 331 326 318 312 312 306